Simultaneous Nadir Overpasses (SNOs) Predictions

Prediction of SNOs between GOES-17 and TERRA Satellite Orbit:

Table of predicted SNOs for the next 14.0 days since TLE Epoch: 11/4/2023
Index Date Time (GOES-17) GOES-17 Lat,Lon TERRA Lat,Lon Distance(km) Time Diff (sec)
1 11/04/2023 16:59:57 0.01,-104.67 0.20,-105.46 89.63 80
2 11/06/2023 16:45:59 0.00,-104.67 -0.67,-101.44 366.65 80
3 11/07/2023 05:06:14 -0.00,-104.65 -0.38,-106.37 194.87 80
4 11/09/2023 04:46:55 -0.00,-104.65 0.47,-102.35 261.81 80
5 11/09/2023 17:07:01 0.00,-104.67 0.54,-107.24 291.95 80
6 11/11/2023 16:53:02 -0.00,-104.67 -0.33,-103.22 165.09 80
7 11/12/2023 05:13:16 0.00,-104.66 -0.74,-108.13 395.72 80
8 11/14/2023 04:53:56 0.01,-104.65 0.11,-104.11 60.83 80
9 11/14/2023 17:14:03 -0.01,-104.66 0.90,-109.00 493.71 80
10 11/16/2023 16:57:22 -0.01,-104.65 0.08,-104.97 37.34 80
